Location: Castiglione Fibocchi
(43.5333°N, 11.7667°E)
Time: 05:58:40
(UTC+00:00)

Daily predictions for brighter satellites

Satellite Brightness Start Highest point End
(mag) Time Altitude Azimuth Time Altitude Azimuth Time Altitude Azimuth
SJ 16-02 3.0 00:09:53 32° NNE 00:09:53 32° NNE 00:12:18 10° NNE
Cosmos 2263 Rocket 3.6 00:14:58 27° E 00:14:58 27° E 00:18:57 10° NE
SL-16 R/B 2.8 00:09:34 10° NNW 00:13:47 51° NW 00:13:47 51° NW
Cosmos 2142 Rocket 4.5 00:17:47 83° N 00:17:47 83° N 00:23:58 10° N
Cosmos 1937 Rocket 4.2 00:27:08 49° ENE 00:27:08 49° ENE 00:31:26 10° NNE
SL-19 R/B 4.4 00:21:39 10° NNE 00:26:52 71° NE 00:26:52 71° NE
Cosmos 990 Rocket 4.5 00:29:47 58° NNE 00:29:47 58° NNE 00:33:54 10° NNE
Cosmos 2297 Rocket 3.5 00:28:55 30° WNW 00:29:09 30° NW 00:34:06 10° N
ADEOS II 3.9 00:29:01 10° NE 00:32:53 20° E 00:33:36 20° ESE
Cosmos 1455 Rocket 4.3 00:35:30 39° NE 00:35:30 39° NE 00:38:37 10° NNE
ATLAS CENTAUR R/B 4.0 00:37:35 13° E 00:37:35 13° E 00:38:24 10° ENE
USA 229 DEB 3.4 00:36:45 86° SSW 00:36:55 89° SE 00:43:48 10° NE
USA 229 3.4 00:36:53 86° S 00:37:02 88° SE 00:43:53 10° NE
Cosmos 2266 Rocket 4.4 00:31:09 10° N 00:37:22 57° ENE 00:38:25 50° ESE
Cosmos 1898 Rocket 3.8 00:43:57 63° N 00:43:57 63° N 00:48:24 10° NNE
Cosmos 2237 Rocket 4.5 00:40:36 10° WNW 00:41:12 12° WNW 00:41:12 12° WNW
GEOS 3 Rocket 4.0 00:42:26 10° NE 00:47:19 56° ESE 00:47:19 56° ESE
NOSS 3-1 (A) 3.2 00:48:36 76° E 00:48:36 76° E 00:54:35 10° NE
IRAS Rocket 4.2 00:49:56 80° E 00:50:02 80° ENE 00:55:40 10° NNW
Meteor 1-24 Rocket 3.9 00:44:40 10° NNW 00:49:07 59° NW 00:49:07 59° NW
Cosmos 1603 4.0 00:50:11 10° NNW 00:55:53 63° ENE 00:57:17 48° ESE
Cosmos 1340 Rocket 4.0 01:07:07 39° N 01:07:07 39° N 01:09:41 10° N
Cosmos 1758 4.4 01:08:43 44° NNE 01:08:43 44° NNE 01:11:30 10° N
CZ-2D R/B 2.0 01:02:22 10° NNE 01:07:54 83° WNW 01:08:00 82° W
SL-16 R/B 2.4 01:09:25 68° SW 01:09:54 72° WSW 01:16:10 10° NNW
Timation 1 Rocket 4.3 01:10:12 64° W 01:10:39 66° WNW 01:16:37 10° NNE
SL-24 R/B 4.4 01:12:55 80° NW 01:12:55 80° NW 01:17:59 10° N
Cosmos 1943 3.3 01:08:49 10° NNW 01:14:28 73° ENE 01:16:10 46° SE
USA 215 4.3 01:09:30 10° ENE 01:15:07 30° SE 01:16:30 28° SSE
Cosmos 1655 Rocket 4.1 01:12:13 10° NNW 01:18:17 54° W 01:18:27 54° W
Cosmos 2227 Rocket 4.2 01:18:31 14° WNW 01:20:18 16° NW 01:23:48 10° N
Cosmos 1544 Rocket 3.9 01:22:37 59° NNW 01:22:37 59° NNW 01:26:24 10° N
Cosmos 2292 Rocket 4.4 01:15:20 10° NNW 01:22:01 57° W 01:22:07 57° W
Cosmos 1470 4.0 01:24:18 35° NNW 01:24:18 35° NNW 01:26:57 10° N
Cosmos 1953 2.9 01:23:54 56° ENE 01:23:54 56° ENE 01:27:26 10° NNE
IRS-1D 3.6 01:19:48 10° NNE 01:24:56 68° ESE 01:25:39 60° SSE
NPP 3.6 01:21:18 10° N 01:26:40 68° WNW 01:27:04 65° W
AQUA 3.8 01:29:40 10° N 01:34:24 66° WNW 01:34:26 66° WNW
Atlas Centaur 2 3.9 01:38:02 21° SSE 01:38:02 21° SSE 01:42:16 10° ESE
Exosat Rocket 4.5 01:36:54 43° SW 01:39:21 62° WNW 01:45:24 10° NNE
Resurs 1-4 Rocket 2.6 01:36:15 10° N 01:41:10 41° WNW 01:41:36 40° W
Cosmos 1602 Rocket 3.3 01:40:01 10° N 01:44:22 86° W 01:44:26 86° SW
Meteor 2-21 Rocket 4.4 01:38:56 10° N 01:45:02 81° E 01:48:18 29° SSE
Cosmos 2098 Rocket 4.4 01:40:22 10° NNW 01:45:50 43° W 01:46:32 42° WSW
SJ 16-02 3.8 01:46:52 11° WNW 01:47:07 11° NW 01:48:24 10° NW
IDEFIX/ARIANE 42P 3.9 01:45:13 10° NNE 01:49:59 35° E 01:53:20 17° SSE
Meteor 2-14 Rocket 4.3 01:44:16 10° NNW 01:50:19 77° W 01:52:41 39° S
Cosmos 1908 3.3 01:56:15 63° SE 01:56:41 70° E 02:00:35 10° NNE
Cosmos 1048 Rocket 3.9 01:52:34 10° NNW 01:57:46 87° ENE 02:01:21 21° SSE
Cosmos 2263 Rocket 2.7 01:56:40 37° W 01:57:58 44° WNW 02:03:17 10° NNE
Cosmos 2298 Rocket 4.0 01:57:57 50° SW 01:59:13 68° WNW 02:04:33 10° NNE
IRS-P3 4.0 01:54:32 10° NNE 01:59:56 90° SE 02:01:52 42° SSW
Cosmos 2228 3.7 01:59:31 30° SSE 02:01:20 51° E 02:05:37 10° NNE
Meteor 1-16 Rocket 4.1 02:01:58 43° SSW 02:03:51 80° W 02:09:29 10° N
Meteor 1-28 Rocket 3.1 02:06:34 51° SSE 02:07:28 85° ENE 02:11:17 10° N
COBE Rocket 4.5 02:08:32 35° W 02:08:32 35° W 02:12:29 10° NNW
SL-08 R/B 3.3 02:05:26 26° SSE 02:08:14 87° WSW 02:13:13 10° NNW
Cosmos 1356 Rocket 4.2 02:10:31 26° SSE 02:12:32 49° E 02:16:30 10° NNE
ADEOS II 2.3 02:07:46 10° N 02:12:53 53° WNW 02:14:31 38° WSW
Cosmos 2285 Rocket 4.0 02:11:00 36° SW 02:13:38 67° WNW 02:19:56 10° NNE
Cosmos 1726 3.5 02:14:19 25° WNW 02:14:19 25° WNW 02:16:51 10° NNW
ATLAS CENTAUR R/B 1.6 02:13:46 45° W 02:14:24 50° NW 02:18:14 10° NNE
Spot 4 Rocket 4.4 02:09:36 10° NNE 02:14:44 61° ESE 02:18:02 22° S
CZ-2C R/B 4.2 02:11:21 10° NNE 02:14:49 32° E 02:17:08 17° SSE
CZ-4B R/B 4.1 02:11:24 10° N 02:15:43 36° WNW 02:16:40 33° W
Cosmos 1300 4.0 02:14:37 17° SSE 02:17:01 36° E 02:20:33 10° NNE
Cosmos 1553 Rocket 3.9 02:15:29 26° S 02:19:04 86° W 02:25:15 10° N
NOSS 2-2 (C) 4.2 02:18:19 29° SSE 02:19:21 36° ESE 02:22:49 10° NE
Cosmos 1844 Rocket 2.9 02:17:42 26° S 02:20:50 65° ESE 02:26:22 10° NNE
ERS-2 4.3 02:18:23 10° SE 02:21:29 27° ENE 02:24:37 10° N
NOSS 8 (H) 4.0 02:24:24 72° SW 02:24:40 85° WNW 02:27:41 10° NE
CZ-4C R/B 4.4 02:22:08 10° SE 02:25:11 37° ENE 02:28:21 10° N
Meteor 1-11 4.2 02:20:59 10° N 02:26:45 86° E 02:32:24 10° S
SL-08 ROCKET BODY 4.4 02:23:55 10° N 02:29:59 88° E 02:35:54 10° S
Cosmos 2084 4.4 02:28:47 27° W 02:30:22 37° NW 02:34:30 10° NNE
Cosmos 1745 Rocket 4.0 02:25:28 10° N 02:31:46 86° E 02:37:57 10° S
Lacrosse 5 rocket 4.1 02:30:06 10° SSE 02:32:12 13° ESE 02:34:20 10° E
ARIANE 5 R/B 2.6 02:28:07 10° N 02:33:19 65° WNW 02:36:11 27° SSW
Cosmos 1758 Rocket 3.8 02:32:24 10° NNW 02:36:34 46° W 02:38:14 30° SW
SeaSat 1 4.4 02:33:15 10° NE 02:37:14 24° ESE 02:41:12 10° SSE
Cosmos 2058 Rocket 3.2 02:41:30 14° S 02:45:18 75° E 02:49:44 10° NNE
Cosmos 494 Rocket 4.0 02:41:03 10° NNW 02:46:07 56° WSW 02:51:10 10° S
H-2A R/B 2.0 02:42:10 10° SSE 02:46:15 77° ENE 02:50:22 10° N
CZ-2D R/B 4.2 02:44:33 10° NNW 02:47:04 13° NW 02:49:18 11° W
S3M 4.0 02:45:35 15° SSW 02:50:55 69° W 02:57:19 10° N
Cosmos 1703 4.3 02:48:40 10° NNW 02:51:59 26° W 02:52:42 24° WSW
CZ-2C R/B 3.5 02:49:30 10° NNE 02:53:53 41° E 02:58:19 10° S
SL-16 R/B 4.4 02:54:31 10° W 02:54:32 10° W 02:55:37 10° WNW
Cosmos 1825 Rocket 4.1 02:51:06 10° NNW 02:55:05 37° W 02:57:30 20° SSW
Landsat 5 3.4 02:51:13 10° SSE 02:55:12 90° E 02:59:23 10° NNW
Cosmos 1125 Rocket 4.3 02:54:01 21° WSW 02:56:52 36° WNW 03:01:45 10° N
USA 215 3.3 02:51:59 10° NE 02:58:33 81° NW 03:03:50 17° WSW
SL-24 R/B 4.5 02:57:08 10° S 03:02:33 64° WSW 03:07:12 10° NNW
CZ-4B R/B 3.6 03:01:24 10° SE 03:04:10 28° ENE 03:06:55 10° N
Cosmos 1892 4.0 03:01:41 10° N 03:05:23 43° ENE 03:09:01 10° SSE
Cosmos 1953 Rocket 4.0 03:02:21 10° NNW 03:06:36 43° W 03:10:48 10° SSW
CZ-2D R/B 4.3 03:06:55 10° N 03:10:28 31° WNW 03:12:51 17° WSW
Cosmos 1709 Rocket 3.9 03:05:22 10° N 03:11:33 84° W 03:17:39 10° S
OAO 2 Rocket 4.3 03:10:54 16° SW 03:14:21 33° S 03:19:02 10° ESE
PAYLOAD A 4.1 03:11:07 10° NNE 03:16:25 82° ESE 03:21:29 10° SSW
USA 238 DEB 4.4 03:15:12 10° NNW 03:22:23 65° NE 03:29:50 10° SE
USA 238 4.4 03:15:18 10° NNW 03:22:29 65° NE 03:29:55 10° SE
Atlas Centaur 2 3.8 03:20:39 13° SW 03:25:28 27° S 03:31:48 10° SE
NOSS 2-2 (E) 4.1 03:22:45 14° WSW 03:25:30 36° NW 03:29:16 10° NNE
NOSS 2-2 (D) 3.7 03:23:29 14° WSW 03:26:20 44° NW 03:30:06 10° NNE
CENTAUR R/B 4.1 03:20:50 10° NNW 03:28:39 53° NE 03:37:12 10° ESE
IDEFIX/ARIANE 42P 3.5 03:24:56 10° N 03:29:29 31° WNW 03:34:01 10° SW
USA 267 3.5 03:23:33 10° ESE 03:30:05 79° NE 03:36:39 10° NW
ADEOS 4.1 03:26:11 10° NNE 03:31:24 63° ESE 03:36:33 10° S
Cosmos 2082 Rocket 4.5 03:28:59 10° N 03:33:54 30° NE 03:38:46 10° ESE
MSX 4.3 03:30:01 10° N 03:35:27 43° WNW 03:40:52 10° SW
PSLV R/B 3.7 03:32:01 10° N 03:36:20 60° WNW 03:40:36 10° SSW
COSMOS 2406 3.6 03:33:03 10° NNW 03:38:46 71° ENE 03:44:24 10° SSE
Cosmos 1825 3.5 03:36:22 10° N 03:40:01 45° ENE 03:43:37 10° SSE
ADEOS Rocket 3.9 03:32:47 10° SSE 03:40:29 78° ENE 03:48:13 10° N
Cosmos 2315 Rocket 4.2 03:34:25 10° SSW 03:40:37 57° WNW 03:46:56 10° N
Meteor 2-1 Rocket 4.4 03:34:46 10° S 03:40:38 87° E 03:46:36 10° N
Cosmos 1844 4.5 03:37:42 10° SW 03:43:04 38° WNW 03:48:25 10° NNE
Cosmos 1455 2.2 03:44:54 10° S 03:48:46 87° W 03:52:40 10° N
CZ-2C R/B 4.4 03:46:20 10° NNW 03:48:59 18° WNW 03:51:36 10° WSW
Cosmos 2084 Rocket 4.4 03:46:08 10° NNW 03:50:33 57° NE 03:55:00 10° SE
deb Chang Zheng 4 3.6 03:46:30 10° N 03:50:51 71° WNW 03:55:10 10° SSW
Cosmos 2151 4.3 03:47:14 10° N 03:51:21 47° ENE 03:55:28 10° SSE
